sat.trackr.live / text

‹ back to catalog

STARLINK-35607

NORAD 66163 · 2025-240T

PAYLOAD ACTIVE UNKNOWN

§ Identity

Operator
Country
US
Launch date
2025-10-25
Launch site
AFWTR
Launch vehicle
Mass (kg)
RCS (m²)

Purposes: comms

External: N2YO · Heavens-Above · Gunter

§ Orbital elements

Epoch: 2026-09-20T22:36:49.788288Z

Period
93.85 min
Inclination
53.1581°
Eccentricity
0.0002162
Mean motion
15.34399070 rev/d
Perigee alt
461.2 km
Apogee alt
464.2 km
Semi-major
6,840.8 km
B*
4.2640e-4
RAAN
231.5394°
Arg perigee
96.2422°
Mean anomaly
263.8827°
Rev number
5,194

§ Raw data

STARLINK-356071 66163U 25240T   26263.94224292  .00014057  00000+0  42640-3 0  99932 66163  53.1581 231.5394 0002162  96.2422 263.8827 15.34399070 51946

JSON: /api/v1/satellites/66163 · /tle

For live sub-satellite position, see the globe view (requires WebGL).

§ Visibility from observer

Set your observer location to see the next 7 days of passes ≥ 10°. The values pass through the URL so the page stays shareable.

No JS? Fill the form by hand. The geolocation button needs JavaScript.